リニア彗星

C/2004 K3 ( LINEAR )

English version
Home page
Updated on September 29, 2004

---------------------------------------------------------------------

・ プロフィール

発見日 2004年5月29日
発見光度 19.3等
発見者 Lincoln Laboratory Near-Earth Asteroid Research project

・ 写真集

・ 軌道要素

T 2004 June 30.4548 TT                                  MPC
q   1.103364             (2000.0)            P               Q
z  +0.017153       Peri.   60.4899      -0.2759515      -0.2670774
                   Node   275.5378      -0.7997238      +0.5966830
e   0.981074       Incl.  111.9286      +0.5331910      +0.7567292
>From 78 observations 2004 May 29-July 6.

・ 星図

・ 光度変化

        m1 = 14.5 + 5 logΔ + 40 log r(t - 15)  [  ,15]  (              〜2004年 7月15日)
        m1 = 15.7 + 5 logΔ + 10 log r          [15,  ]  (2004年 7月15日〜              )

        ※ 灰色の曲線は、m1 = 15.7 + 5 logΔ + 10 log r の光度曲線です。

---------------------------------------------------------------------

軌道要素はM.P.E.C. 2004-N36に掲載されたものです。
星図は StellaNavigator Ver.2.0 for Windows (アストロアーツ 編著 / アスキー出版局刊) で作成したものです。
光度グラフはComet for Windowsで作成したものです。

---------------------------------------------------------------------

Copyright(C) Seiichi Yoshida (comet@aerith.net). All rights reserved.